カタログに戻る

FENGYUN 1C DEB

運用中PO
NORAD 29857·DEBRIS·🇨🇳 China

打ち上げ May 10, 1999 から Taiyuan Satellite Launch Center

Loading…

次のパス (今後24時間)

TLE

最新Source: Space-Track

元期: Sep 14, 2026, 09:54 UTC

1 29857U 99025FB  26257.41316571  .00000945  00000-0  78848-3 0  9992
2 29857  98.4338 240.8902 0189533 262.1786  95.7818 13.82732968985845

AllMySatでFENGYUN 1C DEBをリアルタイム追跡

Download on the App Store